PROMETHEUS 2-11 (47313 NORAD) Tracking and Keplerian Element Data

This shows tracking and keplerian element data for the satellite.

Feedback or suggestion? Click here.




ElementValue
Catalog47313
NamePROMETHEUS 2-11
Epoch Orbit1242
Epoch Day99.78609181
Epoch Year2021
RAAN187.9034
Inclination60.6849
Eccentricity0.0026384
Argument of Perigee358.5999
Mean Anonmoly1.5009
Mean Motion15.2216807
Decay Rate2.514E-05
L11 47313U 21002E 21099.78609181 .00002514 00000-0 11963-3 0 9999
L22 47313 60.6849 187.9034 0026384 358.5999 1.5009 15.22168070 12422

Live tracking and technical data element details for PROMETHEUS 2-11 (NORAD 47313). PROMETHEUS 2-11 can be tracked NOW for your location showing map with azimuth and elevation plus other details from your city location.

Track the satellite on the map from your city or location and see movement details for azimuth, elevation, latitude, longitude, range, height, and movement on the map or in text.







IsCatalogInMostPopularTable: catalog: 47313, numindb: 23
Update: records affected: 1



GetName: 47313 PROMETHEUS 2-11

Hit Count: updated at: Sat, 10 Apr 2021 19:12:02 GMT